Погода Имени Попова

Погода Имени Попова : погода сейчас, прогноз погоды и архив. Всё, что Вы хотите узнать о погоде Имени Попова!

Поиск расширенной информации на нашем сайте:

Другие новости

Новости СМИ2

Главная страница сайта

Новости сайта

03.07.2017

Напоминаем, что на нашем специализированном сайте Метеоцентр.Азия вы можете получить высокодетализированные автоматические прогнозы погоды по пунктам России, СНГ и мира в авиационном формате (включающие направление и скорость ветра, видимость, явления погоды, количество и форму облачности, нижнюю и верхнюю границу облачности).


Погода Имени Попова - сегодня

Время (UTC), дата Ветер
(°,м/с) 
Видим.   Явления Облачность Т
(°С)
Тd
(°С)
f(%) Тe
(°С)
Pmin
(гПа)
dP
(гПа)
Po
(мм)
O2
(г/м3)
Тmin Tmax R s Состояние
почвы
18 14.08.18 060 (СВ) 20000 м    10/10 180 м 
[St]
+6.3 +5.8 97 +5  993  0.6  744  292           
21 14.08.18 040 (СВ) 0500 м  слаб. дождь{туман}  ?/?  
+5.5 +5.3 99 +4  993.7  0.7  745  293           
00 15.08.18 050 (СВ) 0500 м  слаб. дождь{туман}  ?/?  
+5.7 +5.6 99 +4  994.8  1.2  746  293           
03 15.08.18 060 (СВ) 4000 м  слаб. дождь{туман}  10/10 330 м 
[Ns]
+7 +6.9 99 +6  996.1  1.2  747  292  +5.3      мокрая 
09 15.08.18 050 (СВ) н/о    н/о 
+7.4 +6.3 93 +6  1000.3  2.4  750  293           
12 15.08.18 040 (СВ) 20000 м    10/10 500 м 
[Sc]
+6.6 +5.5 93 +4  1002.2  1.9  751  295           
21 15.08.18 010 (С) 0500 м  слаб. морось{туман}  ?/?  
+3.3 +3.2 99 +1  1005.9  0.9  754  300           
00 16.08.18 030 (СВ) 0500 м  слаб. морось{туман}  ?/?  
+3.3 +3.2 99 1006.5  0.6  754  300           
03 16.08.18 040 (СВ) 2000 м  слаб. морось{туман}  10/10 270 м 
[St]
+3.8 +3.6 99 +1  1007  0.5  755  299  +3.1    0.3    мокрая 
09 16.08.18 050 (СВ) 20000 м    10/10 270 м 
[St]
+6.1 +5.1 93 +5  1008.3  0.8  756  297           
12 16.08.18 070 (В) 20000 м    10/10 400 м 
[Sc]
+5.9 +4.4 90 +4  1009.3  756  298           
21 16.08.18 050 (СВ) 20000 м    10/10 400 м 
[Sc]
+4.7 +4.3 97 +4  1011.6  0.7  758  300           
00 17.08.18 040 (СВ) 0500 м  туман  ?/?  
+4.7 +4.5 99 +4  1012.4  0.8  759  300           
03 17.08.18 050 (СВ) 10 км  в посл. час туман{дождь, морось}  10/10 300 м 
[Sc]
+5 +4.9 99 +3  1013.3  0.9  759  300  +4.5    0.1     
09 17.08.18 010 (С) 20000 м    10/8 420 м средняя 
[Sc|Ac trans]
+5.1 +3.4 89 +3  1014.9  0.8  761  300           
12 17.08.18 010 (С) 20000 м    9/9 400 м 
[Sc]
+3.7 +2.4 91 +1  1015.6  0.7  761  302           
18 17.08.18 360 (С) 20000 м    10/10 500 м 
[Sc]
+3.1 +1.7 91 +1  1016.4  0.4  762  303           
21 17.08.18 360 (С) 20000 м    10/10 300 м 
[Sc]
+2.9 +2.1 94 1016.8  0.4  762  304           
00 18.08.18 360 (С) 20000 м    10/10 270 м 
[St]
+2.8 +2.2 96 +1  1017.7  0.9  763  304           
03 18.08.18 360 (С) 20000 м    10/10 300 м 
[Sc|As trans]
+2.7 +1.8 94 +2  1017.8  0.1  763  304  +2.7        влажная 
09 18.08.18 230 (ЮЗ) 20000 м    10/10 270 м 
[St]
+4.2 +2.8 91 +4  1017.9  763  302           
12 18.08.18 290 (З) 20000 м    10/10 1140 м 
[Sc diur, vesp]
+5.6 +4.7 94 +5  1017.4  -0.5  763  300           
18 18.08.18 230 (ЮЗ) 20000 м    10/10 500 м 
[Sc]
+5 +4.3 95 +3  1015.4  -1.3  761  300           
21 18.08.18 210 (ЮЗ) 8-10{11}  4000 м  слаб. морось  10/10 240 м 
[St]
+4.4 +3.8 96 +1  1013.9  -1.5  760  301           
03 19.08.18 170 (Ю) 8-12{12}  10 км  слаб. дождь  10/10 330 м 
[Ns]
+5.1 +4.5 96 +2  1008.6  -3.1  756  298  +3.3      влажная 
Время (UTC), дата Ветер
(°,м/с) 
Видим.   Явления Облачность Т
(°С)
Тd
(°С)
f(%) Тe
(°С)
Pmin
(гПа)
dP
(гПа)
Po
(мм)
O2
(г/м3)
Тmin Tmax R s Состояние
почвы

Для получения пояснительной информации подведите курсор к названию столбца.

ПОГОДА Имени Попова - архив

Всё, что Вы хотите узнать о погоде Имени Попова - удобно и подробно!

Выберите нужную дату (начиная с 1 января 2015* года) и нажмите кнопку "Найти".
Будут отображены архивные сводки погоды по пункту Имени Попова, начиная с указанной даты.


Отображать данные в формате CSV (для использования в таблицах Excel)


Внимание! Наш архив погоды предназначен исключительно для личного некоммерческого использования в познавательных целях. Если Вам необходимы официальные справки о состоянии погоды (для производственных, юридических, коммерческих и т.п. целей), обращайтесь в органы Росгидромета.

*Примечание: данная дата относится к архиву по метеостанциям СССР (Россия, СНГ, Балтия).
Архив по метеостанциям Зарубежной Европы и Азии (кроме Китая) хранится 10 дней, по другим регионам земного шара (Китай, Африка, Америка, Австралия, Океания) - 1 день.

Имени Попова - район местоположения метеостанции


Название, широта, долгота, высота метеостанции:
Имени Попова 73.3°ш. 70.1°д. 7 м над ур. моря [Российская Федерация]

Дополнительная информация

В oтличие oт бoльшинства пoгoдных сайтoв мы публикуем пoдрoбную метеoинфoрмацию в детальнoм прoфессиoнальнoм фoрмате.

Характеристики температуры и влажнoсти вoздуха измеряются на высoте 2 м в тени вдали oт зданий и деревьев.
Скoрoсть ветра измеряется на высoте 10 м (на урoвне рoста челoвека скoрoсть ветра ниже в 1.5-2 раза). Если метеoстанция нахoдится в гoрoде или в лесу, тo скoрoсть ветра занижена на 2-4 м/с пo сравнению с oткрытым местoм. Скoрoсть ветра над акватoриями крупных рек и oзёр, а также на вершинах хoлмoв на 2-5 м/с выше, чем в oбычных услoвиях.
Атмoсфернoе давление в разных тoчках местнoсти мoжет значительнo oтличаться oт давления на метеoстанции, в зависимoсти oт услoвий рельефа (при пoдъёме на 10 м давление пoнижается примернo на 1 мм рт.ст.).